QPF
0.01 0.01 0.01 0.01 0.01 0.01 0.02 0.03 0.04 0.03 0.02 0.01 0.00 0.00 0.00 0.00 0.00 0.00 0.00 0.01 0.01 0.02 0.04 0.04 0.04 0.03 0.02 0.02 0.02 0.02 0.02 0.01 0.01 0.01 0.01 0.02 0.02 0.02 0.04 0.04 0.04 0.03 0.02
0.02 0.01 0.01 0.01 0.01 0.01 0.02 0.03 0.04 0.03 0.02 0.01 0.01 0.00 0.00 0.00 0.00 0.00 0.00 0.01 0.01 0.02 0.03 0.03 0.04 0.03 0.03 0.03 0.03 0.02 0.02 0.01 0.01 0.01 0.01 0.01 0.01 0.02 0.03 0.04 0.04 0.03 0.02
0.03 0.02 0.01 0.02 0.02 0.02 0.02 0.03 0.03 0.04 0.04 0.03 0.02 0.01 0.00 0.00 0.00 0.00 0.00 0.00 0.01 0.01 0.02 0.03 0.04 0.03 0.02 0.03 0.02 0.02 0.02 0.02 0.02 0.01 0.01 0.01 0.01 0.01 0.02 0.02 0.03 0.03 0.03
0.04 0.03 0.02 0.01 0.02 0.03 0.03 0.03 0.02 0.03 0.04 0.04 0.04 0.02 0.01 0.00 0.00 0.00 0.00 0.00 0.01 0.01 0.01 0.01 0.02 0.03 0.03 0.03 0.03 0.02 0.02 0.02 0.02 0.02 0.01 0.01 0.01 0.01 0.02 0.02 0.02 0.03 0.03
0.04 0.03 0.02 0.01 0.02 0.02 0.03 0.04 0.03 0.03 0.02 0.03 0.03 0.03 0.02 0.01 0.01 0.01 0.00 0.00 0.01 0.01 0.01 0.01 0.02 0.02 0.03 0.03 0.03 0.03 0.02 0.02 0.02 0.02 0.02 0.01 0.01 0.01 0.01 0.01 0.02 0.02 0.03
0.04 0.03 0.03 0.02 0.01 0.02 0.04 0.05 0.03 0.03 0.03 0.03 0.03 0.03 0.03 0.02 0.01 0.01 0.01 0.01 0.01 0.01 0.01 0.01 0.01 0.02 0.02 0.03 0.03 0.03 0.03 0.03 0.03 0.03 0.03 0.03 0.02 0.02 0.02 0.02 0.02 0.02 0.02
0.04 0.03 0.03 0.02 0.02 0.02 0.03 0.05 0.05 0.03 0.03 0.04 0.04 0.04 0.04 0.04 0.03 0.02 0.01 0.01 0.01 0.01 0.01 0.01 0.01 0.01 0.01 0.02 0.02 0.02 0.02 0.02 0.02 0.02 0.03 0.04 0.04 0.03 0.03 0.03 0.03 0.03 0.02
0.06 0.04 0.03 0.03 0.02 0.02 0.02 0.03 0.03 0.03 0.03 0.04 0.04 0.05 0.05 0.05 0.04 0.02 0.01 0.01 0.01 0.01 0.01 0.01 0.01 0.01 0.01 0.01 0.01 0.01 0.01 0.02 0.02 0.02 0.02 0.03 0.03 0.03 0.03 0.03 0.03 0.03 0.03
0.07 0.06 0.05 0.04 0.03 0.03 0.02 0.01 0.02 0.02 0.02 0.02 0.03 0.04 0.05 0.04 0.04 0.03 0.02 0.02 0.01 0.01 0.01 0.01 0.01 0.01 0.01 0.01 0.01 0.01 0.01 0.01 0.02 0.03 0.03 0.03 0.03 0.03 0.03 0.03 0.03 0.03 0.03
0.07 0.06 0.07 0.06 0.05 0.04 0.03 0.02 0.02 0.03 0.03 0.03 0.03 0.02 0.02 0.02 0.03 0.03 0.03 0.03 0.02 0.02 0.01 0.01 0.00 0.01 0.01 0.01 0.01 0.01 0.01 0.01 0.01 0.02 0.03 0.03 0.03 0.03 0.03 0.03 0.03 0.03 0.04
0.08 0.06 0.06 0.06 0.05 0.04 0.03 0.03 0.02 0.02 0.03 0.03 0.03 0.02 0.02 0.02 0.02 0.02 0.03 0.03 0.03 0.03 0.03 0.03 0.03 0.02 0.02 0.02 0.01 0.01 0.01 0.01 0.01 0.02 0.02 0.03 0.03 0.03 0.03 0.04 0.04 0.03 0.03
0.10 0.09 0.07 0.06 0.06 0.04 0.03 0.03 0.02 0.02 0.02 0.03 0.03 0.02 0.02 0.02 0.02 0.02 0.02 0.02 0.02 0.02 0.02 0.02 0.03 0.04 0.04 0.04 0.03 0.04 0.03 0.02 0.01 0.01 0.02 0.02 0.02 0.02 0.02 0.03 0.04 0.04 0.04
0.10 0.11 0.10 0.07 0.06 0.05 0.04 0.03 0.03 0.02 0.02 0.03 0.04 0.04 0.03 0.02 0.02 0.01 0.01 0.01 0.01 0.01 0.02 0.02 0.02 0.02 0.02 0.02 0.02 0.02 0.03 0.03 0.02 0.02 0.02 0.03 0.02 0.02 0.02 0.02 0.02 0.03 0.04
0.07 0.09 0.10 0.09 0.07 0.06 0.05 0.03 0.03 0.03 0.02 0.02 0.03 0.04 0.04 0.02 0.02 0.02 0.02 0.02 0.02 0.01 0.01 0.01 0.01 0.01 0.01 0.01 0.02 0.02 0.02 0.03 0.03 0.03 0.03 0.03 0.02 0.02 0.02 0.02 0.02 0.02 0.03
0.05 0.06 0.07 0.07 0.07 0.06 0.05 0.03 0.03 0.02 0.02 0.02 0.02 0.03 0.04 0.04 0.03 0.02 0.02 0.03 0.03 0.02 0.01 0.01 0.01 0.01 0.01 0.01 0.02 0.02 0.02 0.03 0.03 0.02 0.02 0.02 0.03 0.02 0.02 0.02 0.02 0.02 0.02
0.03 0.04 0.04 0.04 0.05 0.05 0.05 0.04 0.03 0.02 0.02 0.02 0.02 0.02 0.03 0.03 0.04 0.02 0.02 0.02 0.02 0.02 0.01 0.01 0.01 0.01 0.01 0.01 0.01 0.02 0.02 0.02 0.03 0.03 0.02 0.02 0.02 0.02 0.02 0.02 0.02 0.02 0.02
0.02 0.03 0.03 0.03 0.03 0.03 0.03 0.03 0.03 0.02 0.02 0.02 0.03 0.02 0.02 0.02 0.03 0.02 0.02 0.02 0.01 0.01 0.01 0.01 0.01 0.01 0.01 0.01 0.01 0.01 0.01 0.01 0.02 0.02 0.02 0.02 0.03 0.03 0.02 0.02 0.02 0.02 0.02
0.02 0.02 0.03 0.03 0.03 0.02 0.02 0.02 0.02 0.02 0.02 0.02 0.03 0.03 0.03 0.03 0.02 0.02 0.02 0.02 0.01 0.02 0.02 0.01 0.01 0.01 0.01 0.01 0.01 0.01 0.01 0.01 0.01 0.02 0.02 0.02 0.03 0.03 0.03 0.03 0.03 0.03 0.03
0.02 0.03 0.02 0.02 0.02 0.02 0.02 0.02 0.01 0.01 0.02 0.02 0.02 0.03 0.04 0.04 0.03 0.03 0.02 0.02 0.01 0.01 0.01 0.01 0.01 0.01 0.01 0.01 0.01 0.01 0.01 0.01 0.01 0.02 0.02 0.02 0.02 0.02 0.02 0.02 0.02 0.02 0.03
0.02 0.03 0.03 0.02 0.02 0.02 0.02 0.01 0.01 0.01 0.01 0.01 0.02 0.03 0.03 0.03 0.04 0.03 0.02 0.02 0.02 0.01 0.01 0.01 0.01 0.01 0.01 0.01 0.01 0.01 0.01 0.01 0.01 0.01 0.01 0.02 0.01 0.01 0.01 0.01 0.00 0.01 0.01
0.02 0.02 0.02 0.02 0.02 0.02 0.02 0.02 0.02 0.01 0.01 0.02 0.02 0.02 0.03 0.04 0.04 0.03 0.02 0.02 0.02 0.02 0.01 0.01 0.02 0.02 0.02 0.01 0.01 0.01 0.01 0.01 0.01 0.01 0.01 0.01 0.01 0.01 0.01 0.01 0.01 0.00 0.01
0.02 0.02 0.02 0.02 0.02 0.02 0.02 0.02 0.03 0.02 0.02 0.02 0.02 0.02 0.03 0.04 0.04 0.03 0.03 0.02 0.02 0.02 0.02 0.01 0.01 0.02 0.02 0.01 0.01 0.01 0.01 0.01 0.01 0.00 0.00 0.00 0.01 0.01 0.01 0.01 0.01 0.01 0.01
0.02 0.03 0.03 0.03 0.03 0.03 0.03 0.03 0.03 0.03 0.02 0.02 0.02 0.02 0.02 0.03 0.05 0.04 0.03 0.03 0.03 0.02 0.01 0.01 0.01 0.02 0.02 0.02 0.01 0.01 0.01 0.01 0.00 0.00 0.00 0.00 0.00 0.01 0.01 0.01 0.01 0.01 0.01
0.02 0.02 0.02 0.03 0.03 0.04 0.04 0.05 0.04 0.03 0.02 0.02 0.02 0.02 0.02 0.02 0.03 0.04 0.04 0.04 0.04 0.03 0.02 0.01 0.01 0.02 0.01 0.01 0.02 0.02 0.02 0.02 0.01 0.01 0.01 0.01 0.00 0.00 0.01 0.01 0.01 0.01 0.01
0.02 0.02 0.02 0.02 0.02 0.03 0.04 0.05 0.05 0.04 0.03 0.02 0.02 0.02 0.02 0.02 0.03 0.05 0.06 0.06 0.05 0.04 0.04 0.03 0.03 0.02 0.02 0.02 0.02 0.02 0.02 0.02 0.01 0.01 0.01 0.01 0.01 0.01 0.01 0.01 0.01 0.01 0.01
0.02 0.01 0.01 0.01 0.01 0.02 0.02 0.04 0.05 0.05 0.05 0.04 0.03 0.02 0.02 0.02 0.03 0.04 0.06 0.06 0.06 0.04 0.03 0.03 0.03 0.02 0.02 0.01 0.01 0.01 0.01 0.01 0.01 0.01 0.01 0.01 0.01 0.01 0.01 0.01 0.01 0.01 0.01
MSLP
1026.21 1026.23 1026.23 1026.24 1026.29 1026.39 1026.52 1026.69 1026.87 1027.04 1027.17 1027.26 1027.32 1027.33 1027.32 1027.30 1027.26 1027.22 1027.17 1027.10 1027.02 1026.92 1026.82 1026.72 1026.64 1026.59 1026.58 1026.60 1026.65 1026.72 1026.79 1026.87 1026.94 1027.01 1027.08 1027.17 1027.26 1027.37 1027.48 1027.57 1027.63 1027.66 1027.64
1026.38 1026.40 1026.40 1026.43 1026.51 1026.64 1026.82 1027.03 1027.25 1027.46 1027.63 1027.76 1027.85 1027.90 1027.92 1027.93 1027.92 1027.90 1027.85 1027.78 1027.69 1027.57 1027.43 1027.30 1027.18 1027.10 1027.05 1027.05 1027.09 1027.16 1027.24 1027.32 1027.42 1027.51 1027.60 1027.70 1027.81 1027.91 1028.01 1028.08 1028.12 1028.11 1028.06
1026.51 1026.54 1026.56 1026.62 1026.74 1026.91 1027.14 1027.39 1027.65 1027.90 1028.11 1028.27 1028.39 1028.47 1028.52 1028.56 1028.57 1028.56 1028.53 1028.46 1028.35 1028.21 1028.05 1027.88 1027.73 1027.61 1027.54 1027.52 1027.54 1027.60 1027.68 1027.78 1027.88 1027.98 1028.09 1028.20 1028.31 1028.41 1028.49 1028.55 1028.56 1028.53 1028.45
1026.63 1026.69 1026.75 1026.86 1027.01 1027.23 1027.50 1027.79 1028.09 1028.36 1028.59 1028.78 1028.92 1029.02 1029.10 1029.16 1029.19 1029.20 1029.17 1029.10 1028.98 1028.83 1028.65 1028.46 1028.29 1028.15 1028.06 1028.01 1028.02 1028.06 1028.14 1028.23 1028.32 1028.42 1028.53 1028.63 1028.73 1028.82 1028.90 1028.94 1028.94 1028.90 1028.80
1026.75 1026.86 1026.97 1027.13 1027.33 1027.59 1027.89 1028.22 1028.53 1028.82 1029.06 1029.26 1029.41 1029.53 1029.63 1029.70 1029.75 1029.77 1029.76 1029.70 1029.58 1029.43 1029.25 1029.05 1028.87 1028.72 1028.61 1028.55 1028.53 1028.56 1028.61 1028.67 1028.75 1028.83 1028.92 1029.00 1029.09 1029.17 1029.23 1029.26 1029.26 1029.21 1029.11
1026.84 1027.01 1027.19 1027.40 1027.65 1027.95 1028.27 1028.61 1028.93 1029.22 1029.47 1029.67 1029.83 1029.96 1030.07 1030.16 1030.24 1030.27 1030.28 1030.23 1030.13 1029.99 1029.82 1029.63 1029.45 1029.30 1029.18 1029.11 1029.08 1029.08 1029.10 1029.13 1029.17 1029.22 1029.27 1029.33 1029.39 1029.45 1029.50 1029.53 1029.53 1029.49 1029.40
1026.87 1027.10 1027.33 1027.60 1027.90 1028.23 1028.57 1028.91 1029.23 1029.51 1029.75 1029.95 1030.13 1030.27 1030.40 1030.52 1030.61 1030.68 1030.71 1030.68 1030.61 1030.49 1030.34 1030.17 1030.01 1029.87 1029.76 1029.68 1029.63 1029.61 1029.60 1029.59 1029.59 1029.60 1029.62 1029.64 1029.68 1029.72 1029.77 1029.80 1029.81 1029.78 1029.71
1026.77 1027.06 1027.36 1027.68 1028.01 1028.37 1028.72 1029.06 1029.37 1029.65 1029.89 1030.10 1030.28 1030.45 1030.60 1030.75 1030.88 1030.97 1031.03 1031.03 1030.99 1030.90 1030.78 1030.64 1030.51 1030.39 1030.29 1030.21 1030.16 1030.11 1030.08 1030.04 1030.01 1029.98 1029.96 1029.96 1029.98 1030.01 1030.06 1030.10 1030.12 1030.12 1030.07
1026.54 1026.88 1027.23 1027.59 1027.96 1028.34 1028.70 1029.03 1029.34 1029.61 1029.86 1030.08 1030.28 1030.48 1030.67 1030.85 1031.01 1031.14 1031.23 1031.26 1031.25 1031.19 1031.10 1031.00 1030.89 1030.79 1030.71 1030.65 1030.60 1030.55 1030.50 1030.44 1030.39 1030.34 1030.30 1030.29 1030.30 1030.34 1030.39 1030.44 1030.49 1030.51 1030.49
1026.19 1026.57 1026.96 1027.36 1027.76 1028.14 1028.51 1028.84 1029.15 1029.43 1029.68 1029.92 1030.16 1030.39 1030.62 1030.84 1031.03 1031.20 1031.31 1031.37 1031.38 1031.35 1031.28 1031.20 1031.13 1031.06 1031.00 1030.95 1030.91 1030.87 1030.82 1030.77 1030.71 1030.66 1030.63 1030.62 1030.64 1030.69 1030.76 1030.83 1030.90 1030.94 1030.95
1025.79 1026.19 1026.61 1027.04 1027.45 1027.84 1028.21 1028.54 1028.85 1029.14 1029.41 1029.68 1029.94 1030.21 1030.48 1030.73 1030.96 1031.14 1031.27 1031.35 1031.38 1031.36 1031.32 1031.26 1031.21 1031.17 1031.14 1031.12 1031.10 1031.07 1031.04 1031.00 1030.96 1030.93 1030.92 1030.93 1030.98 1031.05 1031.14 1031.24 1031.32 1031.38 1031.40
1025.41 1025.82 1026.26 1026.69 1027.11 1027.51 1027.87 1028.21 1028.52 1028.81 1029.10 1029.39 1029.69 1029.99 1030.29 1030.56 1030.81 1031.01 1031.15 1031.24 1031.27 1031.27 1031.24 1031.21 1031.18 1031.16 1031.15 1031.16 1031.16 1031.16 1031.16 1031.15 1031.14 1031.14 1031.16 1031.20 1031.28 1031.38 1031.49 1031.61 1031.71 1031.78 1031.81
1025.13 1025.54 1025.97 1026.40 1026.82 1027.21 1027.56 1027.89 1028.20 1028.50 1028.80 1029.11 1029.43 1029.75 1030.06 1030.36 1030.61 1030.82 1030.96 1031.05 1031.10 1031.10 1031.10 1031.08 1031.08 1031.08 1031.10 1031.13 1031.16 1031.19 1031.22 1031.24 1031.26 1031.29 1031.34 1031.42 1031.52 1031.65 1031.78 1031.91 1032.02 1032.10 1032.14
1025.00 1025.39 1025.81 1026.22 1026.61 1026.98 1027.32 1027.63 1027.93 1028.23 1028.54 1028.85 1029.18 1029.51 1029.83 1030.13 1030.39 1030.59 1030.74 1030.84 1030.89 1030.92 1030.93 1030.94 1030.97 1031.00 1031.05 1031.11 1031.16 1031.22 1031.26 1031.31 1031.35 1031.41 1031.48 1031.58 1031.70 1031.84 1031.99 1032.12 1032.23 1032.31 1032.35
1025.05 1025.40 1025.77 1026.14 1026.50 1026.84 1027.15 1027.44 1027.73 1028.02 1028.31 1028.63 1028.95 1029.28 1029.60 1029.89 1030.14 1030.35 1030.50 1030.61 1030.69 1030.74 1030.79 1030.84 1030.90 1030.97 1031.05 1031.14 1031.21 1031.28 1031.35 1031.40 1031.46 1031.52 1031.61 1031.71 1031.84 1031.97 1032.11 1032.24 1032.35 1032.42 1032.45
1025.23 1025.52 1025.84 1026.16 1026.47 1026.76 1027.04 1027.30 1027.56 1027.83 1028.12 1028.42 1028.73 1029.04 1029.35 1029.63 1029.88 1030.09 1030.26 1030.39 1030.50 1030.60 1030.69 1030.79 1030.90 1031.02 1031.13 1031.24 1031.34 1031.42 1031.49 1031.54 1031.60 1031.66 1031.73 1031.82 1031.93 1032.05 1032.17 1032.28 1032.37 1032.43 1032.46
1025.51 1025.73 1025.97 1026.22 1026.48 1026.72 1026.95 1027.18 1027.41 1027.66 1027.92 1028.20 1028.49 1028.79 1029.08 1029.35 1029.60 1029.81 1030.00 1030.17 1030.32 1030.47 1030.62 1030.79 1030.95 1031.12 1031.27 1031.41 1031.53 1031.62 1031.68 1031.73 1031.78 1031.82 1031.87 1031.93 1032.01 1032.10 1032.18 1032.26 1032.33 1032.37 1032.39
1025.83 1025.96 1026.12 1026.31 1026.49 1026.68 1026.87 1027.06 1027.26 1027.48 1027.72 1027.98 1028.25 1028.52 1028.79 1029.05 1029.29 1029.52 1029.73 1029.93 1030.13 1030.34 1030.56 1030.78 1031.00 1031.22 1031.41 1031.59 1031.72 1031.82 1031.89 1031.94 1031.97 1031.99 1032.02 1032.05 1032.09 1032.14 1032.18 1032.22 1032.26 1032.28 1032.29
1026.17 1026.21 1026.29 1026.40 1026.52 1026.66 1026.80 1026.95 1027.13 1027.32 1027.53 1027.76 1028.00 1028.25 1028.50 1028.75 1028.98 1029.21 1029.44 1029.67 1029.92 1030.18 1030.45 1030.73 1031.00 1031.27 1031.50 1031.71 1031.87 1031.99 1032.07 1032.12 1032.14 1032.16 1032.16 1032.17 1032.18 1032.19 1032.19 1032.19 1032.19 1032.18 1032.17
1026.52 1026.48 1026.49 1026.53 1026.59 1026.68 1026.77 1026.89 1027.03 1027.19 1027.38 1027.58 1027.80 1028.02 1028.25 1028.47 1028.70 1028.92 1029.16 1029.41 1029.69 1029.98 1030.29 1030.61 1030.92 1031.22 1031.49 1031.73 1031.92 1032.06 1032.16 1032.23 1032.27 1032.29 1032.29 1032.29 1032.28 1032.26 1032.23 1032.19 1032.15 1032.11 1032.07
1026.91 1026.82 1026.77 1026.75 1026.76 1026.79 1026.85 1026.93 1027.04 1027.17 1027.32 1027.50 1027.69 1027.88 1028.08 1028.28 1028.48 1028.70 1028.93 1029.19 1029.47 1029.77 1030.10 1030.43 1030.77 1031.09 1031.38 1031.64 1031.85 1032.03 1032.16 1032.26 1032.33 1032.37 1032.40 1032.41 1032.39 1032.36 1032.31 1032.25 1032.17 1032.09 1032.01
1027.40 1027.27 1027.17 1027.10 1027.07 1027.06 1027.07 1027.12 1027.19 1027.29 1027.41 1027.56 1027.71 1027.88 1028.04 1028.21 1028.40 1028.59 1028.80 1029.04 1029.31 1029.61 1029.93 1030.26 1030.59 1030.92 1031.22 1031.49 1031.73 1031.93 1032.10 1032.23 1032.35 1032.43 1032.49 1032.53 1032.53 1032.51 1032.45 1032.36 1032.26 1032.14 1032.03
1028.02 1027.86 1027.74 1027.63 1027.56 1027.51 1027.48 1027.49 1027.52 1027.59 1027.68 1027.79 1027.92 1028.05 1028.19 1028.33 1028.49 1028.65 1028.84 1029.06 1029.30 1029.57 1029.86 1030.17 1030.48 1030.79 1031.09 1031.36 1031.61 1031.83 1032.03 1032.21 1032.37 1032.50 1032.61 1032.68 1032.71 1032.70 1032.65 1032.56 1032.44 1032.29 1032.15
1028.78 1028.61 1028.47 1028.34 1028.23 1028.14 1028.08 1028.05 1028.05 1028.08 1028.14 1028.22 1028.31 1028.42 1028.54 1028.66 1028.79 1028.93 1029.10 1029.28 1029.50 1029.74 1029.99 1030.27 1030.55 1030.83 1031.10 1031.36 1031.60 1031.83 1032.05 1032.26 1032.45 1032.62 1032.76 1032.87 1032.94 1032.95 1032.91 1032.83 1032.70 1032.54 1032.37
1029.64 1029.48 1029.32 1029.17 1029.03 1028.91 1028.82 1028.75 1028.72 1028.72 1028.75 1028.81 1028.89 1028.98 1029.08 1029.19 1029.31 1029.44 1029.59 1029.76 1029.95 1030.16 1030.38 1030.62 1030.86 1031.10 1031.34 1031.57 1031.80 1032.01 1032.23 1032.44 1032.64 1032.83 1033.00 1033.13 1033.22 1033.25 1033.22 1033.14 1033.02 1032.85 1032.67
1030.54 1030.38 1030.22 1030.06 1029.90 1029.75 1029.63 1029.53 1029.47 1029.45 1029.47 1029.51 1029.59 1029.68 1029.78 1029.89 1030.02 1030.15 1030.30 1030.47 1030.65 1030.84 1031.04 1031.25 1031.46 1031.66 1031.86 1032.05 1032.24 1032.42 1032.61 1032.79 1032.98 1033.16 1033.32 1033.45 1033.53 1033.57 1033.55 1033.48 1033.36 1033.19 1033.00
Thickness
5602 5602 5604 5605 5606 5607 5608 5608 5608 5609 5609 5609 5610 5610 5611 5612 5613 5615 5616 5618 5620 5622 5624 5625 5625 5626 5626 5627 5626 5627 5627 5627 5627 5628 5628 5628 5628 5629 5630 5631 5631 5632 5632
5594 5594 5594 5595 5596 5598 5599 5600 5600 5601 5601 5601 5601 5601 5602 5603 5604 5606 5607 5609 5610 5613 5615 5616 5617 5617 5618 5619 5619 5619 5619 5620 5620 5620 5621 5621 5621 5622 5623 5624 5624 5625 5626
5586 5586 5586 5586 5587 5588 5590 5590 5591 5592 5592 5592 5592 5592 5592 5594 5595 5596 5598 5599 5601 5602 5604 5606 5607 5608 5609 5610 5610 5610 5611 5611 5612 5612 5613 5613 5613 5614 5615 5616 5617 5618 5618
5577 5577 5578 5578 5579 5579 5580 5581 5581 5581 5582 5582 5582 5582 5583 5585 5586 5587 5588 5590 5591 5593 5594 5596 5597 5599 5600 5600 5601 5601 5601 5602 5603 5603 5604 5604 5605 5606 5607 5608 5609 5610 5611
5567 5568 5569 5569 5569 5570 5571 5572 5571 5571 5571 5571 5572 5573 5573 5575 5576 5578 5579 5580 5581 5583 5584 5585 5587 5588 5589 5590 5591 5592 5592 5592 5593 5594 5594 5595 5596 5597 5598 5599 5600 5601 5602
5559 5559 5559 5559 5560 5561 5561 5562 5561 5561 5561 5562 5563 5563 5563 5564 5566 5567 5569 5570 5571 5573 5574 5575 5577 5578 5578 5579 5580 5581 5582 5582 5583 5583 5584 5585 5586 5587 5588 5590 5591 5592 5593
5549 5550 5549 5550 5550 5551 5551 5552 5552 5551 5550 5552 5552 5551 5552 5554 5555 5557 5558 5559 5561 5562 5563 5565 5566 5567 5567 5568 5569 5570 5571 5572 5572 5573 5573 5574 5575 5576 5578 5580 5581 5582 5584
5539 5539 5540 5540 5541 5541 5541 5541 5542 5541 5540 5542 5542 5541 5542 5543 5544 5546 5547 5548 5550 5551 5552 5553 5554 5555 5555 5556 5557 5558 5559 5560 5561 5562 5563 5563 5565 5566 5567 5569 5571 5573 5574
5528 5529 5530 5531 5531 5532 5532 5531 5531 5531 5531 5530 5532 5533 5531 5533 5531 5534 5535 5537 5538 5539 5540 5541 5542 5543 5544 5545 5546 5546 5547 5548 5549 5551 5552 5552 5554 5555 5557 5558 5560 5562 5564
5517 5518 5519 5520 5520 5521 5521 5521 5521 5521 5522 5520 5520 5521 5521 5522 5521 5522 5524 5525 5526 5527 5528 5529 5529 5530 5531 5532 5533 5534 5535 5536 5537 5539 5540 5541 5543 5544 5545 5547 5549 5551 5553
5505 5506 5508 5509 5509 5509 5510 5510 5510 5510 5511 5511 5510 5509 5509 5509 5510 5511 5513 5513 5514 5515 5515 5516 5517 5518 5518 5519 5521 5522 5522 5524 5525 5527 5528 5530 5531 5533 5534 5536 5538 5540 5542
5493 5495 5496 5497 5497 5498 5498 5499 5499 5499 5499 5500 5500 5500 5499 5499 5498 5498 5499 5500 5501 5502 5503 5504 5504 5505 5505 5506 5508 5509 5510 5511 5513 5515 5517 5518 5520 5521 5523 5525 5527 5529 5531
5481 5483 5484 5484 5485 5485 5486 5487 5487 5486 5486 5487 5488 5488 5489 5489 5488 5487 5487 5487 5487 5488 5490 5491 5491 5491 5492 5493 5494 5496 5497 5499 5500 5503 5504 5506 5508 5510 5511 5513 5516 5518 5520
5469 5471 5471 5472 5473 5474 5474 5474 5474 5474 5474 5475 5475 5476 5476 5477 5476 5476 5475 5474 5473 5475 5476 5478 5478 5478 5478 5479 5481 5483 5484 5486 5488 5490 5492 5494 5496 5498 5500 5502 5504 5506 5508
5456 5458 5459 5459 5460 5461 5461 5461 5462 5462 5462 5462 5462 5463 5463 5464 5464 5464 5464 5464 5462 5463 5466 5465 5464 5465 5465 5465 5467 5469 5471 5474 5476 5478 5480 5482 5483 5485 5487 5490 5492 5494 5496
5443 5444 5445 5446 5447 5447 5448 5448 5449 5449 5449 5450 5450 5450 5450 5451 5451 5451 5451 5450 5450 5451 5452 5453 5450 5451 5451 5452 5453 5455 5458 5460 5463 5465 5467 5469 5471 5473 5475 5477 5480 5482 5484
5429 5430 5432 5433 5433 5434 5435 5435 5436 5436 5436 5437 5437 5437 5437 5437 5438 5438 5438 5437 5436 5436 5437 5438 5437 5437 5437 5438 5440 5442 5444 5447 5450 5452 5455 5457 5459 5461 5463 5465 5467 5469 5472
5415 5417 5418 5419 5420 5421 5421 5422 5423 5423 5423 5424 5424 5424 5424 5424 5424 5425 5424 5424 5423 5423 5424 5424 5424 5423 5423 5424 5426 5428 5431 5434 5437 5439 5441 5444 5446 5447 5449 5452 5454 5456 5459
5401 5402 5404 5406 5407 5408 5408 5409 5410 5411 5411 5412 5412 5412 5412 5411 5412 5412 5412 5411 5411 5411 5411 5411 5412 5410 5409 5410 5412 5415 5418 5420 5423 5425 5428 5430 5432 5434 5435 5438 5440 5443 5445
5388 5389 5390 5392 5393 5395 5396 5396 5397 5398 5399 5400 5400 5399 5399 5399 5400 5399 5399 5399 5399 5398 5398 5398 5398 5397 5397 5398 5399 5401 5404 5406 5409 5411 5414 5416 5417 5419 5422 5424 5427 5429 5431
5375 5376 5377 5378 5380 5381 5383 5384 5385 5386 5386 5386 5386 5386 5386 5386 5387 5387 5388 5388 5387 5386 5385 5385 5385 5386 5386 5386 5387 5389 5391 5393 5395 5396 5399 5402 5403 5406 5408 5410 5411 5414 5416
5361 5362 5363 5365 5366 5368 5370 5372 5373 5373 5373 5373 5374 5374 5374 5374 5374 5375 5376 5376 5376 5375 5374 5373 5374 5375 5376 5376 5376 5377 5378 5379 5382 5384 5384 5387 5389 5391 5393 5395 5397 5399 5401
5348 5349 5350 5351 5353 5355 5356 5359 5360 5359 5360 5360 5361 5361 5361 5362 5362 5362 5363 5363 5363 5363 5364 5363 5363 5364 5365 5365 5364 5365 5366 5367 5370 5370 5369 5373 5374 5377 5378 5380 5382 5385 5387
5334 5335 5336 5338 5340 5342 5343 5345 5346 5346 5346 5347 5347 5348 5348 5349 5349 5349 5350 5349 5349 5350 5351 5352 5353 5354 5353 5352 5353 5354 5354 5354 5355 5355 5356 5358 5360 5362 5364 5366 5367 5370 5371
5321 5321 5322 5324 5325 5327 5329 5331 5332 5332 5332 5333 5333 5334 5335 5336 5337 5337 5337 5337 5338 5338 5338 5338 5339 5340 5340 5340 5340 5340 5339 5339 5341 5342 5341 5342 5345 5346 5349 5352 5353 5354 5356
5307 5308 5309 5310 5311 5312 5314 5316 5317 5317 5319 5320 5320 5321 5322 5323 5323 5324 5324 5324 5325 5326 5326 5326 5325 5326 5326 5327 5327 5327 5327 5327 5328 5328 5329 5328 5329 5329 5334 5338 5339 5340 5342